Weather in Mgla

Russia / Nenets Autonomous Okrug     66°29′55″N   44°26′57″E
temp.,
°C
wind,
m/s
gust,
m/s
humid.,
%
clouds,
%
prec.,
mm/h
press.,
hPa
HPBL,
m
15 august, mon
mon1500:00+11wnw469114 0.1 101882
03:00+10n458870 0.1 101963
06:00+11nnw35835 0.0 1021191
09:00+13nw45718 0.0 1022433
12:00+13nw55645 0.0 1024521
15:00+13nw56625 0.0 1025475
18:00+12nnw45665 0.0 1024285
21:00+9nne33835 0.0 102529
16 august, tue
tue1600:00+8e33825 0.0 102638
03:00+8se448176 0.0 102654
06:00+10sse457473 0.0 1026133
09:00+14s5654100 0.0 1025319
12:00+14s4762100 0.0 1025201
15:00+15s476587 0.0 1023251
18:00+16s567321 0.0 1023241
21:00+13sse5588100 0.0 102248
17 august, wed
wed1700:00+13s578992 0.0 102275
03:00+13ssw578946 0.0 102174
06:00+15ssw468729 0.0 102089
09:00+19sw34755 0.0 1020248
12:00+21wsw44696 0.0 1020424
15:00+20wnw347241 0.0 1020307
18:00+19wsw237729 0.0 1019121
21:00+18sw33775 0.0 101911
18 august, thu
thu1800:00+18s44827 0.0 101921
03:00+16ssw568453 0.0 101948
06:00+18ssw468048 0.0 101976
09:00+21ssw56685 0.0 1019239
12:00+23sw575912 0.0 1019588
15:00+22wnw45636 0.0 1020247
18:00+18w34785 0.4 102080
21:00+17wsw33796 0.4 102112
19 august, fri
fri1900:00+13nw459796 0.0 102287
03:00+13nnw45100100 1.4 1023156
06:00+12nnw5597100 0.7 1024180
09:00+14n3492100 0.8 1025302
12:00+15ne4489100 0.1 1026349
15:00+14ene4484100 0.1 1027313
18:00+13ene668096 0.0 1027286
21:00+10ene57885 0.0 1028171